Flag for Morocco Weather past 2 weeks in Tangier, Morocco

Now
77 °F

Passing clouds.


Feels Like: 78 °F
Forecast: 63 / 71 °F
Wind: 23 mph from East

Location: Tanger Aerodrome

Current Time: May 22, 2015 at 2:48:56 PM

Latest Report: May 22, 2015 at 2:30 PM


Visibility: N/A

Pressure: 29.98 "Hg

Humidity: 42%

Dew point: 52 °F

Location of TangierLocation

Historic Weather in Tangier — Graph

°F

Tangier temperature yesterday

Maximum temperature yesterday: 81 °F (at 1:30 PM)
Minimum temperature yesterday: 64 °F (at 1:00 AM)
Average temperature yesterday: 71 °F

Past Weeks' High & Low Weather Summary

 TemperatureHumidityPressure
High88 °F (May 11, 2:30 PM)94% (May 8, 12:00 AM)30.27 "Hg (May 8, 12:00 AM)
Low52 °F (May 9, 7:00 AM)23% (May 13, 10:00 AM)29.86 "Hg (May 18, 3:00 AM)
Average70 °F59%30.05 "Hg
* Reported May 7 1:00 PM — May 22 1:30 PM, Tangier, Weather by CustomWeather, © 2015

Note: Actual official high and low records may vary slightly from our data, if they occured in-between our weather recording intervals... More about our weather records

Advertising

Tangier weather history for previous 24 hours

 ConditionsComfort  
Time TempWeatherWind HumidityBarometerVisibility
1:30 PM
Fri, May 22
75 °FPassing clouds.28 mph44%30.01 "HgN/A
1:00 PM75 °FPassing clouds.24 mph47%30.01 "HgN/A
12:30 PM75 °FPassing clouds.26 mph44%30.01 "HgN/A
12:00 PM75 °FPassing clouds.26 mph44%30.04 "HgN/A
11:30 AM75 °FPassing clouds.26 mph44%30.04 "HgN/A
11:00 AM73 °FPassing clouds.26 mph47%N/AN/A
10:30 AM72 °FPassing clouds.29 mph50%30.04 "HgN/A
10:00 AM72 °FPassing clouds.26 mph50%30.04 "HgN/A
9:30 AM72 °FPassing clouds.24 mph50%30.04 "HgN/A
9:00 AM70 °FPassing clouds.24 mph53%30.04 "HgN/A
8:30 AM68 °FPassing clouds.24 mph56%30.04 "HgN/A
8:00 AM68 °FPassing clouds.24 mph60%30.04 "HgN/A
7:30 AM66 °FPassing clouds.22 mph60%30.04 "HgN/A
7:00 AM64 °FPassing clouds.23 mph64%30.04 "HgN/A
6:30 AM64 °FPassing clouds.22 mph64%30.04 "HgN/A
6:00 AM64 °FPassing clouds.22 mph64%30.04 "HgN/A
5:30 AM64 °FClear.24 mph64%30.04 "Hg10 mi
5:00 AM66 °FClear.24 mph56%30.04 "Hg10 mi
4:30 AM66 °FClear.21 mph56%30.04 "Hg10 mi
4:00 AM66 °FClear.22 mph52%30.04 "Hg1 mi
3:30 AM66 °FClear.20 mph56%30.04 "Hg10 mi
3:00 AM66 °FClear.17 mph60%30.04 "Hg10 mi
2:30 AM66 °FClear.21 mph56%30.04 "Hg10 mi
2:00 AM66 °FClear.20 mph52%30.04 "Hg10 mi
1:30 AM68 °FClear.18 mph49%30.07 "Hg10 mi
1:00 AM68 °FClear.20 mph49%30.07 "Hg10 mi
12:30 AM68 °FClear.21 mph49%30.07 "Hg10 mi
12:00 AM68 °FClear.18 mph49%30.09 "Hg10 mi
11:30 PM
Thu, May 21
68 °FClear.20 mph49%30.09 "Hg10 mi
11:00 PM68 °FClear.21 mph49%30.09 "Hg10 mi
10:30 PM68 °FClear.21 mph49%30.09 "Hg10 mi
10:00 PM68 °FClear.20 mph46%30.09 "Hg10 mi
9:30 PM68 °FClear.16 mph46%30.09 "Hg10 mi
9:00 PM68 °FClear.16 mph49%30.09 "Hg10 mi
8:30 PM70 °FPassing clouds.18 mph46%30.09 "HgN/A
8:00 PM70 °FPassing clouds.18 mph46%30.09 "HgN/A
7:30 PM72 °FSunny.21 mph41%30.07 "Hg10 mi
7:00 PM73 °FSunny.21 mph38%30.07 "Hg10 mi
6:30 PM73 °FPassing clouds.23 mph36%30.09 "HgN/A
6:00 PM75 °FPassing clouds.21 mph36%30.09 "HgN/A
5:30 PM77 °FPassing clouds.21 mph36%30.09 "HgN/A
5:00 PM77 °FPassing clouds.20 mph36%30.09 "HgN/A
4:30 PM77 °FPassing clouds.20 mph42%30.09 "HgN/A
4:00 PM77 °FPassing clouds.23 mph42%30.09 "HgN/A
3:30 PM77 °FPassing clouds.23 mph44%30.09 "HgN/A
3:00 PM77 °FPassing clouds.25 mph44%30.09 "HgN/A
2:30 PM79 °FPassing clouds.24 mph39%30.09 "HgN/A
2:00 PM79 °FPassing clouds.22 mph42%30.09 "HgN/A
Weather by CustomWeather, © 2015

See weather overviewHow to use our weather pages